Location: Ipswich
(52.0579°N, 1.1528°E)
Time: 21:16:18
(UTC+01:00)

ISS - Pass Details

Date: 04 May 2026
Orbit: 414 x 424 km, 51.6° (Epoch: 15 May)

Event Time Altitude Azimuth Distance (km) Brightness Sun altitude
Exits shadow 01:31:12 23° 89° (E) 948 -1.9 -21.5°
Drops below altitude 10° 01:32:36 10° 83° (E) 1,500 -0.8 -21.5°
Sets 01:34:43 0° 81° (E) 2,367 0.3 -21.4°
